Missoula, MT

10:20 PM MDT on July 26, 2017 (GMT -0600)
Missoula International

Weather History for KMSO - September, 2012

Change the Weather History Date:

Thursday, September 27, 2012

  Actual Average Record
Temperature  
Mean Temperature 58 °F 53 °F  
Max Temperature 77 °F 68 °F 89 °F (1957)
Min Temperature 39 °F 38 °F 24 °F (1964)
Degree Days  
Heating Degree Days 7 12  
Month to date heating degree days 126 203  
Since 1 July heating degree days 157 287  
Cooling Degree Days 0 0  
Month to date cooling degree days 0 13  
Year to date cooling degree days 415 330  
Growing Degree Days 8 (Base 50)    
Moisture  
Dew Point 37 °F    
Average Humidity 51    
Maximum Humidity 79    
Minimum Humidity 23    
Precipitation  
Precipitation 0.00 in 0.03 in 0.84 in (1982)
Month to date precipitation T 1.07  
Year to date precipitation 10.51 11.10  
Snow  
Snow 0.00 in - - ()
Month to date snowfall 0.0  
Year to date snowfall 29.2  
Since 1 July snowfall 0.0  
Snow Depth 0.00 in    
Sea Level Pressure  
Sea Level Pressure 30.10 in    
Wind  
Wind Speed 1 mph (NNW)    
Max Wind Speed 13 mph    
Max Gust Speed 17 mph    
Visibility 8 miles    
Events      
T = Trace of Precipitation, MM = Missing Value Source: NWS Daily Summary

Daily Weather History Graph

Daily Weather History Graph

Search for Another Location

Airport or City:

Trip Planner

Search our weather history database for the weather conditions in past years. The results will help you decide how hot, cold, wet, or windy it might be!

Date:

Astronomy

Sep. 27, 2012 Rise Set
Actual Time 7:30 AM MDT 7:22 PM MDT
Civil Twilight 7:00 AM MDT 7:53 PM MDT
Nautical Twilight 6:24 AM MDT 8:28 PM MDT
Astronomical Twilight 5:48 AM MDT 9:04 PM MDT
Moon 6:01 PM MDT 4:57 AM MDT
Length of Visible Light 12h 52m
Length of Day
11h 52m
Waxing Gibbous, 94% of the Moon is Illuminated
Sep 27
Waxing Gibbous
Sep 29
Full
Oct 8
Last Quarter
Oct 15
New
Oct 21
First Quarter

Hourly Weather History & Observations

Time (MDT) Temp. Windchill Dew Point Humidity Pressure Visibility Wind Dir Wind Speed Gust Speed Precip Events Conditions
12:53 AM 51.1 °F - 37.9 °F 61% 30.10 in 9.0 mi Calm Calm - N/A   Clear
1:53 AM 50.0 °F - 37.9 °F 63% 30.11 in 9.0 mi Calm Calm - N/A   Clear
2:53 AM 46.0 °F - 37.0 °F 71% 30.12 in 9.0 mi Calm Calm - N/A   Clear
3:53 AM 46.0 °F - 37.0 °F 71% 30.11 in 9.0 mi Calm Calm - N/A   Clear
4:53 AM 45.0 °F - 37.0 °F 74% 30.13 in 8.0 mi Calm Calm - N/A   Clear
5:53 AM 42.1 °F 40.2 °F 35.1 °F 76% 30.15 in 9.0 mi North 3.5 mph - N/A   Clear
6:53 AM 39.9 °F - 34.0 °F 79% 30.17 in 9.0 mi Calm Calm - N/A   Clear
7:53 AM 39.0 °F - 34.0 °F 82% 30.17 in 7.0 mi Calm Calm - N/A   Clear
8:53 AM 45.0 °F - 37.0 °F 74% 30.18 in 7.0 mi Calm Calm - N/A   Clear
9:53 AM 48.0 °F - 37.0 °F 66% 30.19 in 7.0 mi Calm Calm - N/A   Clear
10:53 AM 54.0 °F - 37.9 °F 55% 30.18 in 7.0 mi Calm Calm - N/A   Clear
11:53 AM 59.0 °F - 39.2 °F 48% 30.16 in 7.0 mi Calm Calm - N/A   Clear
12:53 PM 63.0 °F - 39.9 °F 43% 30.13 in 6.0 mi Calm Calm - N/A   Smoke
1:53 PM 68.0 °F - 39.9 °F 36% 30.09 in 6.0 mi Calm Calm - N/A   Haze
2:53 PM 73.0 °F - 39.0 °F 29% 30.06 in 6.0 mi Calm Calm - N/A   Haze
3:53 PM 73.9 °F - 37.9 °F 27% 30.04 in 7.0 mi Variable 3.5 mph - N/A   Clear
4:53 PM 75.9 °F - 36.0 °F 23% 30.01 in 9.0 mi West 4.6 mph - N/A   Clear
5:53 PM 75.0 °F - 36.0 °F 24% 30.01 in 8.0 mi SW 3.5 mph - N/A   Clear
6:53 PM 72.0 °F - 37.0 °F 28% 30.02 in 9.0 mi NNE 10.4 mph - N/A   Clear
7:53 PM 70.0 °F - 34.0 °F 27% 30.02 in 10.0 mi NNE 8.1 mph - N/A   Clear
8:53 PM 63.0 °F - 37.0 °F 38% 30.04 in 10.0 mi Calm Calm - N/A   Clear
9:53 PM 59.0 °F - 35.1 °F 41% 30.06 in 10.0 mi Calm Calm - N/A   Clear
10:53 PM 57.2 °F - 35.6 °F 44% 30.07 in 10.0 mi Calm Calm - N/A   Clear
11:53 PM 52.0 °F - 35.1 °F 53% 30.07 in 9.0 mi Calm Calm - N/A   Clear